This is the latest recevied weather packets stored in our database for station/object IW8RUI-5. If no packets are shown the sender has not sent any weather packets the latest 10 day(s).
| Time | Temp. | Humidity | Pressure | Rain* | Wind** | Luminosity | Snow |
|---|---|---|---|---|---|---|---|
| 1777655966 | 7.22° C | 10% | 1010 hPa | 0 mm | - | - | - |
| 1777655667 | 7.78° C | 10% | 1010 hPa | 0 mm | - | - | - |
| 1777655366 | 7.78° C | 10% | 1010 hPa | 0 mm | - | - | - |
| 1777655066 | 7.78° C | 10% | 1010 hPa | 0 mm | - | - | - |
| 1777654766 | 7.78° C | 10% | 1010 hPa | 0 mm | - | - | - |
| 1777654466 | 7.78° C | 10% | 1010 hPa | 0 mm | - | - | - |
| 1777654167 | 7.78° C | 10% | 1010 hPa | 0 mm | - | - | - |
| 1777653866 | 7.78° C | 10% | 1010 hPa | 0 mm | - | - | - |
| 1777653566 | 8.33° C | 10% | 1010 hPa | 0 mm | - | - | - |
| 1777653266 | 8.33° C | 10% | 1010 hPa | 0 mm | - | - | - |
| 1777652966 | 8.89° C | 10% | 1010 hPa | 0 mm | - | - | - |
| 1777652666 | 10° C | 10% | 1010 hPa | 0 mm | - | - | - |
| 1777651766 | 10° C | 10% | 1010 hPa | 0 mm | - | - | - |
| 1777651467 | 9.44° C | 10% | 1010 hPa | 0 mm | - | - | - |
| 1777651166 | 8.33° C | 10% | 1010 hPa | 0 mm | - | - | - |
| 1777650866 | 8.33° C | 10% | 1010 hPa | 0 mm | - | - | - |
| 1777650566 | 8.33° C | 10% | 1010 hPa | 0 mm | - | - | - |
| 1777649966 | 8.89° C | 11% | 1010 hPa | 0 mm | - | - | - |
| 1777649666 | 10° C | 14% | 1010 hPa | 0 mm | - | - | - |
| 1777649366 | 10° C | 11% | 1010 hPa | 0 mm | - | - | - |
| 1777649066 | 10° C | 10% | 1010 hPa | 0 mm | - | - | - |
| 1777648767 | 10° C | 10% | 1010 hPa | 0 mm | - | - | - |
| 1777648466 | 9.44° C | 11% | 1010 hPa | 0 mm | - | - | - |
| 1777648164 | 10° C | 10% | 1010 hPa | 0 mm | - | - | - |
| 1777647866 | 9.44° C | 14% | 1010 hPa | 0 mm | - | - | - |
* Rain latest hour (hover to see other rain measurements)
** Current wind speed in m/s (hover to see current wind gust speed)